ITARNLAS2 Weather Reports


time (UTC)temp
C
wind
direction
speed
KPH
gust
KPH
rain 1hr
cm
rain 24hr
cm
rain mn
cm
humidity
%
barometer
mb
20260901181611 22 0 0.0 0.0 0.00 0.00 0.00 49 1022.0
20260901180110 22 0 0.0 0.0 0.00 0.00 0.00 49 1021.9
20260901174614 22 0 0.0 0.0 0.00 0.00 0.00 47 1021.9
20260901173111 23 0 0.0 0.0 0.00 0.00 0.00 47 1021.9
20260901171607 23 0 0.0 0.0 0.00 0.00 0.00 43 1021.8
20260901170109 24 266 0.0 1.6 0.00 0.00 0.00 42 1021.9
20260901164606 25 0 1.6 9.7 0.00 0.00 0.00 41 1021.7
20260901163109 25 217 1.6 12.9 0.00 0.00 0.00 42 1021.7
20260901161613 25 29 1.6 4.8 0.00 0.00 0.00 37 1021.6
20260901160113 26 0 3.2 8.0 0.00 0.00 0.00 40 1021.5
20260901154605 26 0 1.6 6.4 0.00 0.00 0.00 37 1021.6
20260901153113 27 240 1.6 9.7 0.00 0.00 0.00 34 1021.5
20260901151607 28 241 1.6 8.0 0.00 0.00 0.00 34 1021.5
20260901150106 28 98 1.6 9.7 0.00 0.00 0.00 36 1021.4
20260901144611 28 209 4.8 12.9 0.00 0.00 0.00 33 1021.4
20260901143102 28 80 0.0 4.8 0.00 0.00 0.00 36 1021.5
20260901141607 27 58 3.2 9.7 0.00 0.00 0.00 34 1021.7
20260901140113 27 156 1.6 8.0 0.00 0.00 0.00 33 1021.7
20260901134612 27 236 1.6 6.4 0.00 0.00 0.00 33 1022.0
20260901133105 27 136 3.2 8.0 0.00 0.00 0.00 32 1022.0
20260901131606 27 0 1.6 12.9 0.00 0.00 0.00 35 1022.1
20260901130106 27 0 0.0 9.7 0.00 0.00 0.00 36 1022.3
20260901124609 27 212 3.2 6.4 0.00 0.00 0.00 36 1022.5
20260901123106 26 124 4.8 11.3 0.00 0.00 0.00 38 1022.7
20260901121604 25 94 3.2 9.7 0.00 0.00 0.00 38 1022.8
20260901120106 25 131 3.2 9.7 0.00 0.00 0.00 41 1022.8
20260901114647 25 95 3.2 9.7 0.00 0.00 0.00 39 1023.1
20260901113107 23 125 3.2 12.9 0.00 0.00 0.00 44 1023.1
20260901111607 23 126 4.8 9.7 0.00 0.00 0.00 43 1023.1
20260901110105 23 106 3.2 11.3 0.00 0.00 0.00 45 1023.3
20260901104604 23 111 1.6 8.0 0.00 0.00 0.00 47 1023.4
20260901103106 22 202 4.8 9.7 0.00 0.00 0.00 48 1023.5
20260901101604 22 153 4.8 11.3 0.00 0.00 0.00 48 1023.6
20260901100106 22 123 4.8 11.3 0.00 0.00 0.00 49 1023.6
20260901094603 22 250 1.6 8.0 0.00 0.00 0.00 50 1023.7
20260901093104 22 182 3.2 11.3 0.00 0.00 0.00 52 1023.8
20260901091619 21 121 4.8 12.9 0.00 0.00 0.00 53 1023.7
20260901090105 21 68 4.8 12.9 0.00 0.00 0.00 54 1023.7
20260901084605 21 116 4.8 11.3 0.00 0.00 0.00 55 1023.7
20260901083106 21 83 4.8 11.3 0.00 0.00 0.00 54 1023.6
20260901081603 20 184 4.8 16.1 0.00 0.00 0.00 61 1023.5
20260901080110 19 119 3.2 9.7 0.00 0.00 0.00 65 1023.5
20260901074606 18 105 1.6 11.3 0.00 0.00 0.00 73 1023.6
20260901073105 15 0 0.0 6.4 0.00 0.00 0.00 87 1023.4
20260901071606 12 0 0.0 0.0 0.00 0.00 0.00 90 1023.5
20260901070117 11 0 0.0 0.0 0.00 0.00 0.00 92 1023.6
20260901064604 11 0 0.0 0.0 0.00 0.00 0.00 92 1023.5
20260901063109 10 0 0.0 0.0 0.00 0.00 0.00 92 1023.5
20260901061608 10 0 0.0 0.0 0.00 0.00 0.00 92 1023.6
20260901060106 9 0 0.0 0.0 0.00 0.00 0.00 92 1023.5
20260901054605 8 0 0.0 0.0 0.00 0.00 0.00 91 1023.3
20260901053119 8 0 0.0 0.0 0.00 0.00 0.00 91 1023.2
20260901051606 8 0 0.0 0.0 0.00 0.00 0.00 91 1023.1
20260901050108 9 0 0.0 0.0 0.00 0.00 0.00 91 1023.2
20260901044610 9 0 0.0 0.0 0.00 0.00 0.00 91 1023.1
20260901043100 9 0 0.0 0.0 0.00 0.00 0.00 91 1023.1
20260901041606 9 0 0.0 0.0 0.00 0.00 0.00 90 1023.1
20260901040105 9 0 0.0 0.0 0.00 0.00 0.00 90 1023.1
20260901034602 10 0 0.0 0.0 0.00 0.00 0.00 90 1023.1
20260901033120 10 0 0.0 0.0 0.00 0.00 0.00 90 1023.3
20260901031600 10 0 0.0 0.0 0.00 0.00 0.00 89 1023.5
20260901030108 10 0 0.0 0.0 0.00 0.00 0.00 89 1023.6
20260901024601 10 0 0.0 0.0 0.00 0.00 0.00 89 1023.7
20260901023110 10 0 0.0 0.0 0.00 0.00 0.00 89 1023.8
20260901021606 11 0 0.0 0.0 0.00 0.00 0.00 88 1023.8
20260901020157 11 0 0.0 0.0 0.00 0.00 0.00 88 1023.9
20260901014608 11 0 0.0 0.0 0.00 0.00 0.00 87 1024.0
20260901013114 11 0 0.0 0.0 0.00 0.00 0.00 86 1024.0
20260901011621 12 0 0.0 0.0 0.00 0.00 0.00 86 1024.0
20260901010117 12 0 0.0 0.0 0.00 0.00 0.00 85 1024.0
20260901004608 12 0 0.0 0.0 0.00 0.00 0.00 84 1024.1
20260901003104 13 0 0.0 0.0 0.00 0.00 0.00 82 1024.3
20260901001606 13 0 0.0 0.0 0.00 0.00 0.00 80 1024.4
20260901000106 14 0 0.0 0.0 0.00 0.00 0.00 79 1024.5
20260831234608 15 0 0.0 0.0 0.00 0.00 0.00 79 1024.5
20260831233107 15 0 0.0 0.0 0.00 0.00 0.00 77 1024.5
20260831231602 15 0 0.0 0.0 0.00 0.00 0.00 75 1024.7
20260831230114 15 0 0.0 0.0 0.00 0.00 0.00 74 1024.7
20260831224608 15 0 0.0 0.0 0.00 0.00 0.00 73 1024.6
20260831223107 15 0 0.0 0.0 0.00 0.00 0.00 76 1024.6
20260831221610 15 0 0.0 0.0 0.00 0.00 0.00 76 1024.5
20260831220115 15 0 0.0 0.0 0.00 0.00 0.00 75 1024.4
20260831214613 15 0 0.0 0.0 0.00 0.00 0.00 74 1024.3
20260831213104 15 0 0.0 0.0 0.00 0.00 0.00 74 1024.2
20260831211610 15 0 0.0 0.0 0.00 0.00 0.00 74 1024.2
20260831210106 15 0 0.0 0.0 0.00 0.00 0.00 74 1024.2
20260831204603 15 0 0.0 0.0 0.00 0.00 0.00 74 1024.1
20260831203108 15 0 0.0 0.0 0.00 0.00 0.00 74 1024.1
20260831201603 15 0 0.0 0.0 0.00 0.00 0.00 74 1023.9
20260831200111 16 0 0.0 0.0 0.00 0.00 0.00 73 1023.9
20260831194616 16 0 0.0 0.0 0.00 0.00 0.00 71 1023.8
20260831193106 16 0 0.0 0.0 0.00 0.00 0.00 69 1023.7
20260831191601 17 0 0.0 0.0 0.00 0.00 0.00 69 1023.7
20260831190116 17 0 0.0 0.0 0.00 0.00 0.00 69 1023.7
20260831184610 17 0 0.0 0.0 0.00 0.00 0.00 67 1023.4
20260831183118 18 0 0.0 0.0 0.00 0.00 0.00 66 1023.5